Location: Unspecified
(43.4680°N, 87.1740°E)
Time: 20:28:22
(UTC+00:00)

FALCON 9 DEB - Pass Details

Date: 17 April 2021
Orbit: 422 x 435 km, 53.0° (Epoch: 12 May)

Event Time Altitude Azimuth Distance (km) Brightness Sun altitude
Rises 13:36:55 0° 198° (SSW) 2,368 6.8 -7.7°
Reaches altitude 10° 13:39:21 10° 181° (S) 1,510 5.6 -8.1°
Maximum altitude 13:41:54 20° 132° (SE) 1,048 4.5 -8.5°
Drops below altitude 10° 13:44:29 10° 83° (E) 1,525 5.4 -9.0°
Enters shadow 13:44:52 - 79° (E) 1,646 5.6 -9.0°
